Regional Weather Roundup
Issued by NWS Goodland, KS

Home | Current Version | Previous Version | Graphics & Text | Print | Product List | Glossary On
Versions: 1 2 3 4 5 6 7 8 9 10 11 12 13 14 15 16 17 18 19 20 21 22 23 24 25 26 27 28 29 30 31 32 33 34 35 36 37 38 39 40 41 42 43 44 45 46 47 48 49 50
000
ASUS43 KGLD 271059
RWRGLD

GOODLAND FORECAST AREA HOURLY WEATHER ROUNDUP
NATIONAL WEATHER SERVICE GOODLAND KS
500 AM MDT WED MAY 27 2015

...OFFICIAL OBSERVATIONS...

CITY           SKY/WX    TMP DP  RH WIND       PRES   REMARKS
GOODLAND KS    CLOUDY    53  51  93 SE10      30.06S
HILL CITY KS   CLOUDY    52  50  93 W3        30.07R
IMPERIAL NEB   MOCLDY    51  48  89 S3        30.07R
MCCOOK NEB     CLOUDY    54  49  83 SW8       30.08R
AKRON CO       MOCLDY    52  49  89 S8        30.05S
BURLINGTON CO  CLOUDY    55  50  83 S10       30.06F
LIMON CO       CLOUDY    50  46  86 SW7       30.10R
$$

...UNOFFICIAL OBSERVATIONS...

CITY           SKY/WX    TMP DP  RH WIND       PRES   REMARKS
COLBY KS       CLEAR     54  54 100 E8        30.06F
GOVE KS          N/A     53  32  45 MISG        N/A
LENORA KS        N/A     57  32  39 MISG        N/A
NORTON KS      PTCLDY    48  45  87 SW5       30.06R
SHARON SPRINGS   N/A     56  54  93 MISG        N/A
KIT CARSON CO    N/A     54  50  86 MISG        N/A
$$


USA.gov is the U.S. government's official web portal to all federal, state and local government web resources and services.